Temperature
20 20 19 19 19 19 19 18 18 18 17 17 17 17 17 16 16 16 16 16 16 16 16 16 15 15 15 15 15 15 15 15 15 15 15 15 15 15 15 15 14 14 14
20 19 19 19 19 19 18 18 18 18 17 17 17 17 16 16 16 16 16 16 16 16 16 15 15 15 15 15 15 15 15 14 15 15 15 14 14 14 14 14 14 14 14
20 19 19 19 19 18 18 18 18 18 17 17 17 16 16 16 16 16 16 16 16 16 16 15 15 15 15 15 15 14 14 14 14 14 14 14 14 14 14 14 14 14 14
20 19 19 19 19 18 18 18 18 17 17 17 17 16 16 16 16 16 16 16 16 16 15 15 15 15 15 15 14 14 14 14 14 14 14 14 14 14 14 14 14 14 13
20 19 19 19 18 18 18 18 18 18 17 17 17 16 16 16 16 16 16 15 15 15 15 15 15 15 15 15 14 14 14 14 14 14 14 14 14 14 14 13 13 13 13
20 20 19 19 18 18 18 18 17 17 17 17 17 16 16 16 16 16 15 15 15 15 15 15 15 15 14 14 14 14 14 14 14 14 14 14 14 14 14 13 13 13 13
20 20 19 18 18 18 17 17 17 17 17 17 16 16 16 16 16 16 15 15 15 15 15 15 15 15 14 14 14 14 14 14 14 14 14 14 14 14 13 13 13 13 13
20 20 19 18 18 18 17 17 17 17 17 16 16 16 16 16 16 16 15 15 15 15 15 15 15 14 14 14 14 14 14 14 14 13 13 13 13 13 13 13 13 12 12
20 20 19 18 18 18 17 17 17 17 16 16 16 16 16 16 16 15 15 15 15 15 15 15 14 14 14 14 14 14 14 13 13 13 13 13 13 13 13 12 12 12 12
20 20 19 18 18 17 17 17 17 16 16 16 16 16 16 16 16 15 15 15 15 15 15 14 14 14 14 14 13 13 13 13 13 13 13 13 13 13 12 12 12 12 12
20 20 19 18 18 17 17 17 16 16 16 16 16 16 16 15 15 15 15 15 15 15 14 14 14 14 14 13 13 13 13 13 13 13 13 12 12 12 12 12 12 12 12
20 19 18 18 17 17 17 16 16 16 16 16 16 16 15 15 15 15 15 15 15 14 14 14 14 14 13 13 13 13 13 13 13 13 12 12 12 12 12 12 12 11 11
19 19 18 18 17 17 16 16 16 16 16 15 15 15 15 15 15 15 15 14 14 14 14 14 14 13 13 13 13 13 13 13 12 12 12 12 12 12 12 12 11 11 11
19 18 18 17 17 17 16 16 16 16 15 15 15 15 15 15 15 14 14 14 14 14 14 14 13 13 13 13 13 13 13 12 12 12 12 12 12 12 12 11 11 11 11
19 18 18 17 17 16 16 16 16 15 15 15 14 14 14 14 14 14 14 14 14 13 13 13 13 13 13 13 13 13 12 12 12 12 12 12 12 12 11 11 11 11 10
19 18 18 17 17 16 16 16 15 15 15 15 15 14 14 14 14 14 14 13 13 13 13 13 13 13 13 13 12 12 12 12 12 12 12 12 12 11 11 11 11 11 10
18 18 17 17 16 16 16 16 15 15 15 14 14 14 14 14 14 13 13 13 13 13 13 13 13 13 13 13 12 12 12 12 12 11 11 11 11 11 11 11 11 10 10
17 17 17 17 16 16 16 16 15 15 14 14 14 14 14 14 13 13 13 13 13 13 13 13 13 13 13 12 12 12 12 12 11 11 11 11 11 11 11 11 10 10 10
17 17 16 16 16 16 16 15 15 15 14 14 14 14 13 13 13 13 13 13 12 12 12 12 12 12 12 12 12 12 11 11 11 11 11 11 11 11 10 10 10 10 10
16 16 16 16 16 16 15 15 15 14 14 14 13 13 13 13 13 13 13 12 12 12 12 12 12 12 11 11 11 11 11 11 11 11 10 10 10 10 10 10 10 10 10
16 15 15 15 15 15 15 15 14 14 14 13 13 13 13 12 12 12 12 12 12 12 12 11 11 11 11 11 11 11 11 11 11 10 10 10 10 10 10 10 10 10 9
15 15 15 15 14 14 14 14 14 14 13 13 13 12 12 12 12 12 12 11 11 11 11 11 11 11 11 11 11 11 11 10 10 10 10 10 10 10 10 9 9 9 9
14 14 14 14 14 14 14 13 13 13 13 12 12 12 12 11 11 11 11 11 11 11 11 10 10 10 10 11 10 10 10 10 10 10 10 10 9 9 9 9 9 9 9
14 13 13 13 13 13 13 13 13 12 12 12 12 11 11 11 11 10 10 10 10 10 10 10 10 10 10 10 10 10 10 10 10 9 9 9 9 9 9 9 9 8 8
13 13 13 13 12 12 12 12 12 12 11 11 11 11 11 11 10 10 10 10 10 10 10 10 10 10 10 10 10 10 10 10 10 9 9 9 9 9 9 8 8 8 8
13 12 12 12 12 12 12 11 11 11 11 11 11 10 10 10 10 10 10 10 10 10 9 9 9 9 9 9 9 9 9 9 9 9 9 9 8 8 8 8 8 8 8
Wind_Speed
6 5 5 5 4 4 4 5 5 5 5 3 2 3 2 2 3 2 3 3 4 5 5 3 3 3 3 3 3 3 2 1 1 2 2 2 2 3 3 4 4 6 7
7 6 4 5 4 4 4 5 4 5 5 3 3 3 2 2 3 2 2 3 4 4 4 3 2 3 3 3 2 3 2 0 0 1 1 1 2 3 3 2 2 4 5
8 8 5 4 3 4 4 4 4 5 5 5 3 3 2 1 2 2 1 1 3 4 3 3 2 2 2 2 1 2 2 1 1 1 1 1 0 0 2 2 3 3 3
7 7 6 5 4 3 4 3 4 4 5 5 4 4 3 2 3 2 2 2 4 4 3 3 2 2 2 2 1 2 1 1 1 2 2 1 2 1 0 2 2 2 2
7 8 7 5 5 4 3 3 4 4 4 5 5 3 2 2 2 3 3 2 2 3 3 3 1 1 2 2 2 2 1 1 0 0 1 1 1 1 1 1 1 1 1
7 7 7 6 5 5 4 3 3 3 3 4 5 4 4 3 3 3 3 2 2 2 2 3 1 1 2 2 1 2 2 0 0 0 0 1 1 1 1 1 1 0 0
7 7 8 7 5 6 4 3 4 3 3 4 4 4 4 4 4 3 3 3 2 2 2 2 1 1 2 2 1 1 1 1 1 1 1 1 1 0 1 2 1 0 1
5 6 7 7 6 6 5 4 4 4 3 3 4 4 4 2 2 3 3 3 2 2 2 2 2 2 2 2 1 1 0 1 1 1 1 1 1 2 2 2 1 0 1
6 6 6 6 6 6 5 5 5 5 4 4 3 4 4 3 2 2 2 3 3 3 3 3 2 3 2 1 1 1 0 1 1 1 1 1 1 1 1 1 2 2 1
6 6 5 5 5 5 4 4 4 5 4 3 2 2 2 3 3 2 2 2 3 3 3 3 3 3 2 2 2 1 1 2 1 1 2 1 1 1 1 1 1 1 2
4 5 5 5 5 4 4 3 3 3 4 4 3 3 3 3 3 3 2 2 3 3 4 4 4 4 3 3 3 2 2 1 1 1 1 0 1 1 0 1 1 1 1
4 5 5 5 4 4 3 2 2 2 2 3 3 4 3 3 3 3 3 3 3 3 4 3 3 3 3 3 3 3 3 3 2 2 2 2 1 1 1 1 1 1 1
5 5 5 4 4 4 3 3 2 3 2 2 2 3 3 3 3 2 2 2 2 2 2 3 3 2 2 2 2 3 3 3 3 2 3 2 2 2 1 1 1 1 0
4 4 4 4 4 4 4 3 3 3 3 3 3 2 2 2 2 2 2 2 2 2 2 2 3 2 2 2 2 2 2 2 2 2 2 2 2 2 2 1 1 1 1
4 4 4 4 4 4 4 4 3 3 3 3 3 3 2 1 2 1 1 1 1 2 2 2 2 2 2 2 1 1 1 1 1 1 2 2 3 2 2 1 1 0 1
3 3 4 4 4 4 4 4 4 4 4 4 3 2 2 2 2 2 2 2 2 2 2 2 3 2 1 2 2 0 1 1 1 2 2 3 3 4 4 3 2 2 2
1 1 2 3 3 3 4 4 5 4 4 4 4 3 3 2 3 3 2 2 2 2 2 2 2 3 3 4 3 2 2 3 3 3 3 3 3 4 3 3 3 3 4
1 0 0 1 2 2 2 3 4 4 4 3 3 3 3 3 3 3 3 3 3 3 3 3 3 3 3 5 5 4 3 4 4 4 4 3 3 4 4 4 4 3 4
1 0 1 0 1 2 2 3 4 4 3 3 3 3 3 3 3 3 3 3 3 3 3 3 3 3 4 6 5 4 3 4 4 4 3 3 3 5 4 3 3 3 4
1 1 1 1 0 1 2 3 3 4 3 3 3 3 3 3 3 4 3 3 3 3 3 3 3 4 4 6 7 6 3 4 4 3 3 3 3 3 4 4 4 4 4
2 2 2 2 1 1 1 2 2 3 3 3 3 3 3 3 3 3 3 2 3 3 3 4 4 4 4 6 8 8 4 4 4 3 3 3 5 5 6 5 4 5 4
2 2 2 2 2 1 1 1 2 2 2 2 3 3 3 4 3 3 3 3 3 3 3 3 3 3 3 4 6 8 8 5 4 4 3 3 5 6 7 6 5 5 3
1 2 2 2 2 1 1 2 2 2 2 3 3 3 3 3 3 3 3 3 3 3 3 3 3 3 2 3 6 8 8 7 4 3 4 4 6 6 6 7 7 4 3
2 2 2 2 2 2 2 2 2 2 2 2 3 3 3 3 2 2 3 3 3 3 4 4 4 3 2 2 2 3 4 5 5 4 4 5 6 5 5 5 5 4 4
2 2 3 3 3 3 3 3 2 2 2 3 3 3 3 3 2 2 3 4 4 4 4 3 3 3 4 4 4 3 4 4 5 3 2 2 2 2 3 3 3 4 4
3 3 3 3 3 3 4 3 2 3 3 3 3 2 2 2 3 3 2 3 4 5 5 5 4 4 5 5 4 5 6 6 6 3 3 4 4 5 5 5 4 4 5
Wind_Direction
149 144 142 134 136 132 122 126 137 135 121 106 99 102 96 100 95 93 89 83 76 79 92 92 87 86 88 82 81 89 74 64 77 71 49 27 47 73 69 58 60 67 70
155 149 155 144 156 147 138 131 140 128 120 121 121 122 123 110 107 91 84 84 84 87 92 95 97 91 93 84 79 95 77 4 65 104 94 48 16 17 57 76 65 68 63
161 157 158 152 156 155 156 148 146 133 130 135 118 112 108 106 105 109 92 78 100 96 84 95 99 105 102 114 106 90 80 33 329 26 72 107 148 340 358 52 79 76 62
156 155 159 160 158 152 141 145 139 138 140 136 132 152 161 158 149 140 133 118 104 102 95 96 113 132 114 122 141 94 89 79 347 347 357 21 118 142 194 347 51 78 80
158 157 157 160 159 144 132 144 137 131 125 125 131 148 145 141 134 133 133 118 102 106 106 101 94 128 128 133 120 105 79 98 86 358 344 8 16 352 134 143 10 21 46
155 153 152 151 148 131 125 122 122 116 116 127 140 151 141 136 136 135 141 132 122 120 120 122 124 104 111 130 141 139 128 119 49 12 341 77 58 340 68 127 171 137 35
155 156 154 154 149 138 137 144 141 139 151 162 159 163 159 166 166 161 149 140 132 124 130 116 115 100 85 98 95 115 147 153 123 56 15 40 20 35 90 106 118 133 214
150 149 150 154 152 149 156 164 165 167 173 183 174 166 158 165 152 150 146 151 149 142 138 122 119 98 85 72 66 82 49 117 116 91 66 59 19 41 89 114 114 55 335
147 146 147 150 152 158 166 180 180 172 172 182 185 161 157 155 147 151 149 137 145 156 145 139 148 124 118 114 101 96 34 74 76 109 85 88 60 60 74 92 135 146 192
145 147 149 149 153 152 160 174 173 170 163 159 171 152 152 148 142 158 162 157 161 146 145 151 157 151 153 146 128 87 60 71 66 73 83 40 79 65 61 71 16 73 150
138 141 138 143 139 139 148 165 177 168 164 169 169 161 158 164 165 169 179 179 172 164 170 171 173 172 174 164 149 153 165 160 179 182 136 130 132 141 132 72 41 30 89
126 125 129 131 131 140 153 165 166 158 161 168 160 162 158 179 179 177 191 190 181 175 171 172 171 164 159 162 165 177 179 182 186 186 165 180 157 157 179 160 190 173 161
127 126 128 139 145 154 163 165 164 151 141 141 152 165 172 183 188 191 181 182 170 165 155 154 154 150 148 164 193 184 185 187 191 192 186 189 164 171 174 192 198 181 166
134 134 143 152 154 161 167 168 166 152 153 154 155 164 185 189 187 186 179 184 174 166 168 159 161 161 161 178 209 182 182 194 200 187 177 170 165 174 184 191 199 178 166
143 146 154 161 163 169 173 170 169 171 171 167 174 185 188 197 175 172 179 187 190 196 201 189 173 174 185 179 159 221 202 197 214 208 186 165 152 137 154 178 199 175 200
147 150 158 165 172 179 184 182 179 183 177 173 180 178 183 185 178 188 200 201 199 206 208 204 185 184 211 167 146 348 275 241 223 230 223 193 169 174 184 198 203 189 199
96 140 168 169 181 192 186 182 179 171 177 179 181 180 182 183 190 195 199 206 206 217 229 221 198 194 192 184 187 219 256 257 240 229 227 227 207 183 185 204 211 227 232
79 35 267 158 169 185 175 165 162 167 176 184 186 181 182 196 201 195 199 212 216 214 225 227 216 199 206 204 204 224 241 258 253 236 229 215 198 205 201 203 210 223 234
72 23 306 290 188 187 184 176 175 175 175 183 198 193 192 201 207 212 212 219 219 219 219 227 222 212 213 211 210 216 241 249 258 251 236 213 212 216 209 204 213 230 246
48 24 325 320 296 221 199 193 187 181 190 194 202 204 202 205 217 224 226 222 214 218 220 228 234 227 213 212 211 211 230 244 251 246 239 213 207 222 214 208 212 225 238
19 5 337 330 333 311 250 210 204 198 193 190 196 206 210 212 219 224 228 220 220 223 225 227 236 232 218 208 211 210 224 237 244 234 233 220 209 219 223 228 217 229 236
5 346 324 315 329 329 305 246 237 232 186 186 194 204 211 219 217 211 220 217 220 222 225 230 239 237 221 203 216 215 225 240 246 241 225 227 224 225 227 230 236 241 245
310 298 291 291 303 304 283 268 259 237 207 196 203 217 218 216 211 208 215 221 219 219 220 223 234 240 235 229 224 222 232 246 247 253 247 243 229 227 228 231 233 228 213
324 314 300 292 294 289 268 273 273 247 223 208 213 224 221 216 217 217 219 223 227 225 224 227 229 233 235 234 227 226 233 244 254 265 261 251 241 227 224 222 226 221 217
294 287 283 283 284 289 282 271 263 252 245 234 226 226 226 215 214 220 222 217 222 215 219 230 231 230 240 242 232 219 223 226 233 244 244 229 215 213 215 214 214 216 220
286 274 271 268 265 267 276 276 257 241 251 253 247 238 225 216 209 215 247 248 228 225 225 229 231 242 248 255 246 242 240 234 227 220 219 222 221 219 217 217 220 219 221
Height
1529 1531 1533 1534 1535 1536 1537 1538 1539 1540 1541 1542 1543 1544 1545 1545 1546 1547 1547 1548 1548 1549 1549 1550 1550 1551 1551 1551 1552 1552 1553 1553 1554 1554 1554 1555 1555 1555 1555 1556 1556 1555 1555
1528 1530 1532 1533 1534 1535 1536 1537 1538 1539 1540 1542 1543 1544 1545 1545 1546 1547 1547 1548 1548 1549 1549 1550 1550 1551 1551 1551 1552 1553 1553 1553 1554 1554 1554 1555 1557 1556 1556 1556 1556 1556 1555
1526 1528 1530 1532 1533 1535 1536 1537 1538 1539 1540 1541 1542 1543 1544 1545 1546 1546 1547 1548 1548 1548 1549 1550 1550 1551 1551 1551 1552 1552 1553 1553 1554 1555 1555 1555 1555 1556 1557 1556 1556 1556 1556
1524 1526 1529 1530 1532 1534 1535 1536 1537 1538 1539 1540 1541 1543 1544 1545 1545 1546 1547 1547 1547 1548 1548 1549 1550 1550 1551 1551 1552 1552 1553 1553 1554 1554 1554 1555 1555 1555 1556 1557 1556 1556 1556
1522 1525 1527 1529 1531 1532 1534 1535 1536 1537 1539 1539 1540 1542 1543 1544 1545 1545 1546 1546 1547 1547 1548 1548 1549 1550 1550 1551 1551 1552 1552 1552 1553 1553 1553 1554 1554 1555 1555 1555 1556 1556 1555
1520 1523 1526 1528 1530 1531 1532 1534 1535 1536 1537 1538 1539 1541 1542 1543 1544 1544 1545 1546 1546 1547 1547 1548 1548 1549 1549 1550 1550 1551 1551 1552 1552 1552 1553 1553 1553 1554 1554 1554 1554 1554 1555
1519 1521 1524 1526 1528 1530 1531 1533 1534 1535 1536 1537 1538 1540 1541 1542 1543 1543 1544 1545 1545 1546 1546 1546 1547 1547 1548 1549 1549 1550 1550 1551 1551 1551 1552 1552 1553 1553 1553 1553 1553 1553 1554
1517 1520 1522 1525 1527 1528 1530 1531 1533 1534 1535 1536 1537 1538 1540 1541 1542 1542 1543 1543 1544 1545 1545 1545 1546 1546 1547 1548 1548 1549 1549 1550 1550 1550 1551 1551 1551 1552 1552 1552 1552 1552 1552
1516 1519 1521 1523 1525 1527 1528 1530 1531 1532 1533 1535 1536 1537 1538 1539 1540 1541 1542 1542 1543 1543 1544 1544 1545 1545 1546 1546 1547 1547 1548 1548 1549 1549 1549 1550 1550 1550 1551 1551 1551 1552 1551
1515 1517 1520 1521 1523 1525 1527 1528 1529 1530 1531 1533 1533 1535 1536 1537 1538 1539 1540 1540 1541 1542 1542 1543 1543 1544 1544 1545 1545 1546 1546 1547 1547 1548 1548 1548 1548 1549 1549 1549 1549 1549 1550
1514 1516 1518 1520 1522 1523 1524 1526 1527 1529 1530 1531 1532 1533 1534 1535 1535 1536 1537 1538 1539 1540 1540 1541 1542 1542 1543 1543 1544 1544 1545 1545 1545 1546 1546 1546 1547 1547 1547 1547 1547 1547 1548
1514 1516 1517 1519 1520 1522 1523 1524 1525 1526 1528 1529 1529 1530 1531 1532 1533 1534 1535 1536 1537 1538 1538 1539 1540 1541 1541 1542 1542 1543 1543 1543 1543 1544 1544 1544 1544 1545 1545 1545 1545 1545 1545
1513 1515 1516 1518 1519 1520 1521 1523 1523 1524 1525 1526 1527 1528 1529 1530 1531 1532 1533 1534 1535 1536 1536 1537 1537 1538 1539 1539 1540 1541 1541 1541 1541 1542 1542 1542 1542 1542 1542 1543 1543 1543 1543
1512 1513 1515 1516 1517 1519 1520 1521 1522 1522 1523 1524 1525 1526 1527 1527 1528 1529 1530 1531 1532 1533 1533 1534 1535 1536 1536 1537 1538 1538 1539 1539 1539 1539 1539 1539 1540 1540 1540 1540 1540 1540 1541
1511 1512 1513 1515 1516 1517 1518 1519 1519 1520 1521 1522 1523 1523 1524 1525 1526 1527 1527 1528 1529 1530 1531 1532 1532 1533 1534 1534 1535 1536 1536 1536 1537 1537 1537 1537 1537 1537 1537 1538 1538 1537 1538
1509 1511 1512 1513 1514 1515 1516 1516 1517 1518 1519 1519 1520 1521 1522 1523 1523 1524 1525 1526 1527 1527 1528 1529 1529 1530 1531 1532 1532 1533 1533 1533 1534 1534 1534 1534 1534 1534 1534 1535 1535 1535 1535
1508 1509 1510 1511 1512 1513 1514 1514 1515 1516 1516 1517 1518 1518 1519 1520 1521 1521 1522 1523 1523 1524 1525 1526 1526 1527 1527 1528 1529 1529 1530 1530 1530 1530 1530 1531 1531 1531 1531 1531 1531 1531 1532
1507 1508 1508 1509 1510 1511 1512 1512 1513 1513 1514 1514 1515 1515 1516 1517 1518 1518 1519 1519 1520 1521 1522 1522 1523 1523 1524 1525 1525 1526 1526 1526 1526 1527 1527 1527 1527 1527 1528 1528 1527 1527 1528
1505 1506 1507 1507 1508 1508 1509 1510 1510 1511 1511 1512 1512 1513 1513 1514 1514 1514 1515 1516 1517 1517 1518 1518 1519 1519 1519 1520 1521 1522 1522 1522 1522 1523 1523 1523 1523 1524 1524 1524 1523 1523 1524
1504 1504 1505 1505 1506 1506 1507 1507 1508 1508 1508 1508 1509 1510 1510 1510 1511 1511 1511 1512 1513 1513 1514 1514 1515 1515 1516 1516 1517 1518 1518 1518 1518 1518 1519 1519 1519 1519 1519 1519 1519 1519 1519
1503 1503 1503 1503 1503 1504 1504 1504 1505 1505 1505 1505 1505 1506 1506 1507 1507 1508 1508 1508 1509 1509 1509 1510 1510 1511 1511 1512 1513 1513 1513 1513 1513 1513 1514 1514 1514 1514 1515 1515 1515 1515 1515
1500 1501 1501 1501 1501 1501 1501 1501 1501 1501 1502 1502 1502 1502 1503 1503 1503 1503 1504 1504 1504 1505 1505 1505 1506 1506 1507 1507 1508 1508 1508 1509 1509 1509 1509 1509 1509 1510 1510 1510 1510 1511 1511
1499 1499 1498 1498 1498 1498 1498 1498 1498 1499 1498 1498 1498 1498 1499 1499 1499 1499 1499 1500 1500 1500 1500 1501 1501 1501 1502 1502 1503 1503 1503 1504 1504 1504 1504 1505 1505 1505 1505 1505 1506 1506 1506
1496 1496 1496 1495 1495 1495 1495 1495 1495 1495 1495 1494 1494 1495 1495 1495 1495 1495 1495 1495 1495 1495 1496 1496 1496 1497 1497 1497 1498 1498 1498 1498 1499 1499 1499 1500 1500 1500 1500 1500 1500 1501 1501
1493 1493 1493 1492 1491 1491 1491 1491 1491 1491 1491 1490 1490 1490 1490 1490 1491 1491 1490 1490 1491 1491 1491 1491 1492 1492 1492 1492 1493 1493 1493 1493 1493 1493 1493 1493 1493 1494 1494 1494 1495 1495 1496
1490 1489 1489 1488 1488 1488 1487 1487 1487 1487 1487 1487 1486 1486 1486 1486 1486 1486 1486 1486 1487 1487 1487 1487 1488 1487 1487 1487 1487 1487 1487 1487 1488 1488 1487 1487 1487 1488 1488 1489 1489 1489 1490